This is the latest recevied weather packets stored in our database for station/object SV9TNF-57. If no packets are shown the sender has not sent any weather packets the latest 10 day(s).
| Time | Temp. | Humidity | Pressure | Rain* | Wind** | Luminosity | Snow |
|---|---|---|---|---|---|---|---|
| 1788446355 | 31.11° C | 45% | 993 hPa | 0 mm | 0.89 m/s, 262° | - | - |
| 1788446055 | 30.56° C | 45% | 993.1 hPa | 0 mm | 0.89 m/s, 307° | - | - |
| 1788445755 | 30.56° C | 45% | 993 hPa | 0 mm | 1.79 m/s, 21° | - | - |
| 1788445455 | 31.11° C | 44% | 992.9 hPa | 0 mm | 2.68 m/s, 287° | - | - |
| 1788445155 | 31.11° C | 44% | 992.7 hPa | 0 mm | 2.68 m/s, 295° | - | - |
| 1788444855 | 31.11° C | 44% | 992.8 hPa | 0 mm | 3.58 m/s, 246° | - | - |
| 1788444555 | 30.56° C | 45% | 992.6 hPa | 0 mm | 4.47 m/s, 319° | - | - |
| 1788444255 | 30.56° C | 43% | 992.6 hPa | 0 mm | 7.15 m/s, 269° | - | - |
| 1788443955 | 30.56° C | 44% | 992.5 hPa | 0 mm | 4.92 m/s, 252° | - | - |
| 1788443654 | 31.11° C | 44% | 992.4 hPa | 0 mm | 6.26 m/s, 6° | - | - |
| 1788443354 | 31.11° C | 43% | 992.5 hPa | 0 mm | 2.68 m/s, 301° | - | - |
| 1788443054 | 30.56° C | 43% | 992.4 hPa | 0 mm | 4.92 m/s, 26° | - | - |
| 1788442754 | 31.11° C | 41% | 992.5 hPa | 0 mm | 6.26 m/s, 318° | - | - |
| 1788442454 | 31.11° C | 40% | 992.5 hPa | 0 mm | 5.36 m/s, 0° | - | - |
| 1788442154 | 31.11° C | 40% | 992.5 hPa | 0 mm | 10.28 m/s, 4° | - | - |
| 1788441854 | 31.11° C | 40% | 992.4 hPa | 0 mm | 3.13 m/s, 279° | - | - |
| 1788441554 | 31.67° C | 39% | 992.3 hPa | 0 mm | 9.39 m/s, 172° | - | - |
| 1788441253 | 31.67° C | 39% | 992.5 hPa | 0 mm | 4.92 m/s, 284° | - | - |
| 1788440953 | 31.11° C | 39% | 992.4 hPa | 0 mm | 6.71 m/s, 3° | - | - |
| 1788440654 | 31.67° C | 39% | 992.6 hPa | 0 mm | 6.71 m/s, 37° | - | - |
| 1788440353 | 32.22° C | 36% | 992.6 hPa | 0 mm | 12.07 m/s, 346° | - | - |
| 1788440053 | 31.67° C | 36% | 992.6 hPa | 0 mm | 1.34 m/s, 295° | - | - |
| 1788439753 | 31.67° C | 36% | 992.7 hPa | 0 mm | 1.79 m/s, 319° | - | - |
| 1788439473 | 31.11° C | 36% | 992.6 hPa | 0 mm | 9.83 m/s, 40° | - | - |
| 1788439153 | 31.11° C | 37% | 992.5 hPa | 0 mm | 10.28 m/s, 11° | - | - |
* Rain latest hour (hover to see other rain measurements)
** Current wind speed in m/s (hover to see current wind gust speed)